[[{"header":{"parameterUnit":"m.s-1","parameterCategory":1,"la1":30.2992,"la2":30.254,"lo1":-89.0895,"lo2":-89.0443,"dy":0.0025,"dx":0.0025,"nx":19,"ny":19,"refTime":"2026-05-13T21:00:00:Z","depth":0,"parameterNumber":2,"parameterNumberName":"U-component_of_WINDS"},"data":[0,0,0,-5.288,-5.2883,-5.2964,-5.2964,-5.3116,-5.3118,0,0,0,0,0,0,0,0,0,0,0,-5.2886,-5.2888,-5.288,-5.2883,-5.2964,-5.2964,-5.3116,-5.3118,0,0,0,0,0,0,0,0,0,0,0,-5.2885,-5.2887,-5.289,-5.2884,-5.2964,-5.2964,-5.3115,-5.3037,0,0,0,0,0,0,0,0,0,0,-5.295,-5.2984,-5.2887,-5.289,-5.2884,-5.2964,-5.2964,-5.3032,-5.3042,-5.31,0,-5.316,0,-5.3141,-5.3131,-5.3132,0,0,0,-5.2861,-5.2976,-5.2971,-5.289,-5.2885,-5.2964,-5.2921,-5.3037,-5.3048,-5.3113,-5.3161,-5.3165,-5.3144,-5.3132,-5.3133,-5.3541,-5.3544,0,0,-5.2857,-5.2917,-5.2964,-5.298,-5.2971,-5.2919,-5.2924,-5.3043,-5.31,-5.3162,-5.3168,-5.3146,-5.3134,-5.3135,-5.3538,-5.3542,0,0,0,-5.2859,-5.2915,-5.2905,-5.2975,-5.2986,-5.2922,-5.2928,-5.3094,-5.3086,-5.3169,-5.3148,-5.3135,-5.3137,-5.3535,-5.3539,-5.3742,0,0,0,-5.2855,-5.2915,-5.2905,-5.2942,-5.2985,-5.3041,-5.2978,-5.3078,-5.309,-5.3147,-5.3135,-5.3139,-5.3531,-5.3537,-5.3729,-5.3828,0,0,0,-5.2871,-5.2917,-5.2939,-5.2945,-5.2982,-5.3038,-5.3036,-5.3079,-5.3078,-5.3132,-5.314,-5.3529,-5.3536,-5.3718,-5.3809,-5.3952,0,0,0,-5.2905,-5.3119,-5.2943,-5.3173,-5.2982,-5.3163,-5.3034,-5.3166,-5.3237,-5.3136,-5.3532,-5.3539,-5.3714,-5.3798,-5.3941,-5.4083,-5.4148,0,0,-5.3208,-5.3158,-5.3288,-5.3133,-5.3361,-5.3146,-5.3402,-5.341,-5.3361,-5.3484,-5.3493,-5.3733,-5.3808,-5.395,-5.4492,-5.4545,0,0,0,-5.3405,-5.35,-5.3547,-5.3616,-5.3627,-5.3644,-5.3606,-5.3608,-5.3709,-5.3436,-5.3822,-5.3864,-5.3945,-5.401,-5.4055,-5.4119,-5.3572,-5.3571,-5.357,-5.3921,-5.3845,-5.4056,-5.399,-5.4059,-5.4017,-5.4065,-5.4061,-5.3966,-5.4058,-5.4094,-5.4433,-5.4511,-5.4544,-5.4613,-5.4163,-5.4164,-5.4165,-5.4165,-5.4358,-5.448,-5.4346,-5.4502,-5.4421,-5.4551,-5.4518,-5.4446,-5.4555,-5.4399,-5.4467,-5.4303,-5.4604,-5.466,-5.418,-5.4177,-5.4175,-5.4174,-5.4173,-5.4688,-5.4733,-5.4732,-5.4823,-5.4902,-5.4826,-5.4937,-5.4859,-5.4786,-5.4852,-5.4881,-5.4878,-5.4864,-5.4872,-5.4873,-5.4874,-5.4875,-5.4876,-5.4877,-5.503,-5.5022,-5.5125,-5.5153,-5.5186,-5.522,-5.5179,-5.5209,-5.5223,-5.5157,-5.5157,-5.5052,-5.4647,-5.4547,-5.4894,-5.4891,-5.4889,-5.4887,-5.4886,-5.5502,-5.5382,-5.5541,-5.5574,-5.5599,-5.5682,-5.558,-5.5649,-5.5663,-5.572,-5.56,-5.5313,-5.5256,-5.522,-5.5137,-5.5616,-5.5616,-5.5616,-5.5616,-5.578,-5.5742,-5.5885,-5.5944,-5.5991,-5.5915,-5.6096,-5.6066,-5.6016,-5.6019,-5.5939,-5.5821,-5.5788,-5.575,-5.5703,-5.5623,-5.6216,-5.6216,-5.6217,-5.6064,-5.6028,-5.6197,-5.6145,-5.6159,-5.6173,-5.634,-5.6412,-5.633,-5.6239,-5.602,-5.5995,-5.5804,-5.5746,-5.5652,-5.558,-5.5433,0,0]},{"header":{"parameterUnit":"m.s-1","parameterCategory":1,"la1":30.2992,"la2":30.254,"lo1":-89.0895,"lo2":-89.0443,"dy":0.0025,"dx":0.0025,"nx":19,"ny":19,"refTime":"2026-05-13T21:00:00:Z","depth":0,"parameterNumber":3,"parameterNumberName":"V-component_of_WINDS"},"data":[0,0,0,0.4806,0.4804,0.4717,0.4717,0.4628,0.4627,0,0,0,0,0,0,0,0,0,0,0,0.4847,0.4847,0.4806,0.4804,0.4717,0.4717,0.4628,0.4627,0,0,0,0,0,0,0,0,0,0,0,0.4847,0.4847,0.4847,0.4804,0.4717,0.4717,0.4628,0.4685,0,0,0,0,0,0,0,0,0,0,0.4766,0.4819,0.4847,0.4847,0.4804,0.4717,0.4716,0.4688,0.4682,0.4678,0,0.4679,0,0.4652,0.4623,0.4623,0,0,0,0.4792,0.4824,0.4787,0.4847,0.4803,0.4718,0.4753,0.4684,0.4677,0.467,0.4678,0.4674,0.4651,0.4622,0.4622,0.4643,0.4643,0,0,0.4797,0.4839,0.4792,0.4784,0.48,0.4756,0.4751,0.468,0.469,0.4677,0.4671,0.4649,0.4622,0.4622,0.4642,0.4643,0,0,0,0.4819,0.4843,0.4807,0.4788,0.4771,0.4754,0.4747,0.4693,0.4678,0.467,0.4648,0.4622,0.4621,0.4641,0.4642,0.4718,0,0,0,0.4821,0.4855,0.481,0.4834,0.4773,0.4731,0.4763,0.4683,0.4674,0.4649,0.4622,0.462,0.464,0.4642,0.4714,0.4746,0,0,0,0.4847,0.4858,0.4851,0.4837,0.4801,0.4731,0.4712,0.468,0.4661,0.4623,0.462,0.464,0.4642,0.471,0.474,0.4765,0,0,0,0.4887,0.4917,0.4853,0.4878,0.4802,0.4779,0.4712,0.4692,0.4667,0.4621,0.4641,0.4642,0.4709,0.4737,0.4762,0.4795,0.4812,0,0,0.4948,0.4926,0.4937,0.4878,0.4877,0.4789,0.4798,0.4735,0.4691,0.4661,0.4661,0.4715,0.474,0.4765,0.4893,0.4907,0,0,0,0.4971,0.498,0.4971,0.4951,0.4905,0.4869,0.48,0.4777,0.475,0.4685,0.4728,0.4742,0.4755,0.4769,0.4781,0.4789,0.465,0.465,0.465,0.5118,0.5063,0.5079,0.5015,0.4996,0.4927,0.4907,0.4863,0.4811,0.4822,0.4813,0.4898,0.4916,0.4924,0.4935,0.4825,0.4825,0.4825,0.4826,0.5204,0.5209,0.5142,0.5134,0.5076,0.5067,0.5001,0.4965,0.4949,0.49,0.4908,0.486,0.4942,0.4948,0.4831,0.483,0.4829,0.4829,0.4828,0.5295,0.5288,0.5261,0.5229,0.521,0.5142,0.5131,0.5076,0.5025,0.5034,0.5019,0.5018,0.5011,0.503,0.5031,0.5031,0.5031,0.5032,0.5032,0.5401,0.5368,0.5366,0.5322,0.5304,0.5272,0.5203,0.5183,0.5146,0.5108,0.5107,0.5056,0.496,0.4938,0.5036,0.5035,0.5035,0.5034,0.5034,0.5512,0.5479,0.5476,0.5458,0.5402,0.5388,0.532,0.5283,0.5258,0.5254,0.52,0.5138,0.5111,0.5101,0.5082,0.5212,0.5212,0.5212,0.5212,0.559,0.5572,0.5558,0.5533,0.5501,0.544,0.5439,0.5386,0.5325,0.5306,0.5279,0.525,0.5242,0.5219,0.5207,0.5189,0.5342,0.5342,0.5342,0.5656,0.5632,0.5642,0.5585,0.5538,0.5499,0.5496,0.5469,0.5392,0.5347,0.5291,0.5285,0.5237,0.5224,0.5178,0.516,0.5125,0,0]}]]